Regional Weather Roundup
Issued by NWS

Home | Current Version | Previous Version | Graphics & Text | Print | Product List | Glossary On
Versions: 1 2 3 4 5 6 7 8 9 10 11 12 13 14 15 16 17 18 19 20 21 22 23 24 25 26 27 28 29 30 31 32 33 34 35 36 37 38 39 40 41 42 43 44 45 46 47 48 49 50
000
ASUS43 KLMK 231402
RWRKY
KENTUCKY REGIONAL WEATHER ROUNDUP
NATIONAL WEATHER SERVICE LOUISVILLE KY
1000 AM EDT MON OCT 23 2017

NOTE "FAIR" INDICATES FEW OR NO CLOUDS BELOW 12,000 FEET
WITH NO SIGNIFICANT WEATHER AND/OR OBSTRUCTIONS TO VISIBILITY.

KYZ001>023-026-027-061>063-070>075-231500-
WESTERN AND SOUTH CENTRAL KENTUCKY

CITY           SKY/WX    TMP DP  RH WIND       PRES   REMARKS
PADUCAH        CLOUDY    54  50  86 NW6       29.88S
HENDERSON      CLOUDY    54  52  93 W10       29.85R FOG
OWENSBORO      LGT RAIN  54  53  97 W12       29.82S FOG
HOPKINSVILLE   CLOUDY    55  55 100 W15       29.86S
BOWLING GREEN  LGT RAIN  60  60 100 W9        29.80R FOG
GLASGOW        NOT AVBL
$$

KYZ024-025-028>034-038-045-046-053-231500-
NORTH CENTRAL KENTUCKY

CITY           SKY/WX    TMP DP  RH WIND       PRES   REMARKS
LOUISVILLE/SDF CLOUDY    65  61  87 S6        29.80F
LOUISVILLE/LOU LGT RAIN  64  63  96 S3        29.82F
FORT KNOX      LGT RAIN  62  61  98 NE7       29.78F
$$

KYZ035>037-039>044-047>052-055>060-089>105-231500-
NORTHEAST KENTUCKY

CITY           SKY/WX    TMP DP  RH WIND       PRES   REMARKS
LEXINGTON      HVY RAIN  60  57  89 W8        29.88S FOG
COVINGTON      HVY RAIN  61  61 100 S8        29.83R FOG
FRANKFORT      RAIN      61  58  90 CALM      29.84F FOG
$$

KYZ054-064>069-076>088-106>120-231500-
SOUTHEAST KENTUCKY

CITY           SKY/WX    TMP DP  RH WIND       PRES   REMARKS
JACKSON        LGT RAIN  63  59  87 SE7       29.88F
LONDON         RAIN      64  61  90 VRB3      29.85F
SOMERSET       NOT AVBL
MIDDLESBORO    RAIN      64  63  95 CALM      29.86F
MONTICELLO     RAIN      59  57  93 N17       29.89F
$$





USA.gov is the U.S. government's official web portal to all federal, state and local government web resources and services.